Showing default

SHARJAHSAT-1, 55104

Orbit data source: Space-Track

SHARJAHSAT-1, 55104 is a payload satellite owned by Sharjah SAAST (AE) in SSO that was launched on Tue, 03 Jan 2023 UTC via an FALCON 9 launch vehicle from the Air Force Eastern Test Range (AFETR). Payload-class satellites include a variety of spacecraft equipped with specific instruments for various scientific and technological missions. These include communications satellites like Starlink; space stations such as the ISS; scientific satellites like the Hubble; Earth observation satellites from companies like Planet Labs, Umbra, and HawkEye 360; GPS; miniature CubeSats for education and research; and military/defense satellites.

Loading next visibility...
Identifier
55104, 2023-001CZ
Orbit
SSO
Country
Flag of AEAE / UAE
Related business
Manufacturer
Sharjah SAAST
Mission
Operational Amateur Technology
Bus & Motor
CUBESAT 3U, Unknown motor
Mass
4 kg wet, 4 kg dry
Launch date (UTC)
2023-01-03 (3 years ago)
Launch vehicle
FALCON 9
Launch site
Air Force Eastern Test Range (AFETR)
Object type
Payload
Rocket body
Debris
Shape & HBR
Box, 0.1 m
Radar Cross Section
0.035 m², Medium (>0.1 m² and < 1m²)

Expand to show TLE details & history
Last TLE update: 1 week ago

TLE from 1 week ago
0 SHARJAHSAT-1
1 55104U 23001CZ  26155.12661868  .00021338  00000-0  40141-3 0  9998
2 55104  97.3175 223.7161 0006888 141.3143 218.8602 15.48553014190472
Epoch: 2026-06-04T03:02Z
TLE epoch observation values (Epoch: 2026-06-04T03:02:19.853Z)
Latitude
-0.00009°
Longitude
-74.44196°
Altitude
427.739 km
Speed
7.653 km/s
True Right ascension
14h 54m 51s
True Declination
0° 00' 00"
Sunlit
Object was in full shadow at epoch
Visualization orbit readout
Latitude
Unknown
Longitude
Unknown
Altitude
Unknown
Speed
Unknown
Apparent Right ascension
Unknown
Apparent Declination
Unknown
Sunlit
N/A
Visualization observer readout
Local Sidereal Time
13:53:16
Azimuth
Unknown
Elevation
Unknown
Doppler factor
Unknown
Orbital elements
Apogee altitude
422.563 km
Perigee altitude
413.201 km
Semi-major axis
6,796.019 km
Eccentricity
0.00069
Inclination
97.3175°
RAAN
223.7161°
Arg. of periapsis
141.3143°
True anomaly
218.81071°
Mean anomaly
218.8602°
Eccentric anomaly
218.83545°
Mean motion
3.87401 °/min
Orbital period
92.93 mins
BSTAR
0.00040141
Loading maneuver chart data...
Computing Atmospheric mass density...

Documentation

Showing up to 5 results
|